When you browse on this site, cookies collect data to enhance your experience and personalize the content and advertising you see.
Visit our Privacy Policy to learn more. By continuing to use the site, you agree to this use of cookies and data.

Meteo pe oră la Dziecmiarowice

Astăzi, 26 Septembrie, Sâmbătă

Timp Temperatura Precipitaţii Vânt Presiune Umiditate
00:00 +13°C° 0.2 mm 2 m/s 736 mmHg 91%
01:00 +12°C° 0.2 mm 3 m/s 735 mmHg 92%
02:00 +12°C° 0.6 mm 3 m/s 735 mmHg 92%
03:00 +12°C° 0.6 mm 3 m/s 735 mmHg 93%
04:00 +11°C° 0.6 mm 3 m/s 734 mmHg 93%
05:00 +11°C° 1.1 mm 4 m/s 733 mmHg 94%
06:00 +11°C° 1.1 mm 4 m/s 733 mmHg 94%
07:00 +11°C° 1.1 mm 4 m/s 732 mmHg 94%
08:00 +11°C° 2.2 mm 4 m/s 732 mmHg 95%
09:00 +11°C° 2.2 mm 4 m/s 732 mmHg 95%
10:00 +12°C° 2.2 mm 4 m/s 732 mmHg 96%
11:00 +12°C° 1.3 mm 3 m/s 732 mmHg 96%
12:00 +12°C° 1.3 mm 3 m/s 731 mmHg 96%
13:00 +14°C° 1.3 mm 2 m/s 731 mmHg 96%
14:00 +14°C° 0.2 mm 2 m/s 732 mmHg 94%
15:00 +14°C° 0.2 mm 2 m/s 732 mmHg 93%
16:00 +15°C° 0.2 mm 2 m/s 732 mmHg 91%
17:00 +13°C° 0 mm 3 m/s 733 mmHg 91%
18:00 +11°C° 0 mm 3 m/s 733 mmHg 91%
19:00 +10°C° 0 mm 3 m/s 734 mmHg 92%
20:00 +10°C° 0 mm 3 m/s 735 mmHg 91%
21:00 +9°C° 0 mm 3 m/s 735 mmHg 91%
22:00 +9°C° 0 mm 3 m/s 736 mmHg 90%
23:00 +8°C° 0 mm 2 m/s 737 mmHg 90%

Mâine, 27 Septembrie, Duminică

Timp Temperatura Precipitaţii Vânt Presiune Umiditate
00:00 +8°C° 0 mm 2 m/s 737 mmHg 89%
01:00 +8°C° 0 mm 2 m/s 737 mmHg 89%
02:00 +8°C° 0 mm 2 m/s 737 mmHg 88%
03:00 +9°C° 0 mm 1 m/s 738 mmHg 88%
04:00 +9°C° 0 mm 1 m/s 738 mmHg 87%
05:00 +9°C° 0.1 mm 1 m/s 738 mmHg 87%
06:00 +8°C° 0.1 mm 2 m/s 738 mmHg 87%
07:00 +9°C° 0.1 mm 2 m/s 738 mmHg 87%
08:00 +9°C° 0.8 mm 2 m/s 739 mmHg 88%
09:00 +9°C° 0.8 mm 2 m/s 739 mmHg 88%
10:00 +9°C° 0.8 mm 2 m/s 739 mmHg 89%
11:00 +10°C° 0.3 mm 3 m/s 739 mmHg 87%
12:00 +10°C° 0.3 mm 3 m/s 740 mmHg 85%
13:00 +10°C° 0.3 mm 3 m/s 740 mmHg 83%
14:00 +11°C° 0 mm 3 m/s 740 mmHg 83%
15:00 +11°C° 0 mm 3 m/s 740 mmHg 83%
16:00 +11°C° 0 mm 3 m/s 740 mmHg 83%
17:00 +12°C° 0 mm 2 m/s 741 mmHg 84%
18:00 +12°C° 0 mm 2 m/s 741 mmHg 86%
19:00 +10°C° 0 mm 2 m/s 742 mmHg 88%
20:00 +10°C° 0.1 mm 2 m/s 742 mmHg 87%
21:00 +10°C° 0.1 mm 3 m/s 742 mmHg 86%
22:00 +10°C° 0.1 mm 3 m/s 743 mmHg 86%
23:00 +10°C° 0.2 mm 3 m/s 743 mmHg 86%

Poimâine, 28 Septembrie, Luni

Timp Temperatura Precipitaţii Vânt Presiune Umiditate
00:00 +10°C° 0.2 mm 3 m/s 743 mmHg 86%
01:00 +10°C° 0.2 mm 2 m/s 743 mmHg 86%
02:00 +10°C° 0 mm 2 m/s 743 mmHg 86%
03:00 +9°C° 0 mm 3 m/s 743 mmHg 85%
04:00 +9°C° 0 mm 3 m/s 743 mmHg 85%
05:00 +9°C° 0 mm 3 m/s 744 mmHg 84%
06:00 +9°C° 0 mm 2 m/s 744 mmHg 83%
07:00 +10°C° 0 mm 2 m/s 744 mmHg 82%
08:00 +11°C° 0 mm 3 m/s 744 mmHg 76%
09:00 +13°C° 0 mm 3 m/s 744 mmHg 69%
10:00 +14°C° 0 mm 3 m/s 744 mmHg 63%
11:00 +16°C° 0 mm 3 m/s 744 mmHg 59%
12:00 +17°C° 0 mm 4 m/s 744 mmHg 56%
13:00 +18°C° 0 mm 4 m/s 744 mmHg 52%
14:00 +18°C° 0 mm 3 m/s 745 mmHg 53%
15:00 +17°C° 0 mm 3 m/s 745 mmHg 55%
16:00 +17°C° 0 mm 3 m/s 745 mmHg 56%
17:00 +16°C° 0 mm 2 m/s 745 mmHg 60%
18:00 +15°C° 0 mm 2 m/s 745 mmHg 64%
19:00 +13°C° 0 mm 2 m/s 745 mmHg 69%
20:00 +13°C° 0 mm 2 m/s 745 mmHg 71%
21:00 +12°C° 0 mm 2 m/s 746 mmHg 74%
22:00 +10°C° 0 mm 2 m/s 746 mmHg 77%
23:00 +10°C° 0 mm 2 m/s 746 mmHg 77%

29 Septembrie, Marţi

Timp Temperatura Precipitaţii Vânt Presiune Umiditate
00:00 +10°C° 0 mm 2 m/s 746 mmHg 78%
01:00 +10°C° 0 mm 2 m/s 746 mmHg 79%
02:00 +10°C° 0 mm 2 m/s 746 mmHg 80%
03:00 +10°C° 0 mm 2 m/s 746 mmHg 81%
04:00 +10°C° 0 mm 2 m/s 746 mmHg 82%
05:00 +10°C° 0 mm 2 m/s 746 mmHg 83%
06:00 +12°C° 0 mm 2 m/s 747 mmHg 83%
07:00 +12°C° 0 mm 2 m/s 747 mmHg 83%
08:00 +12°C° 0 mm 2 m/s 747 mmHg 83%
09:00 +13°C° 0 mm 2 m/s 747 mmHg 84%
10:00 +13°C° 0 mm 3 m/s 747 mmHg 84%
11:00 +13°C° 0.1 mm 3 m/s 747 mmHg 81%
12:00 +14°C° 0.1 mm 4 m/s 748 mmHg 79%
13:00 +15°C° 0.1 mm 4 m/s 748 mmHg 76%
14:00 +15°C° 0.1 mm 4 m/s 748 mmHg 75%
15:00 +15°C° 0.1 mm 4 m/s 748 mmHg 74%
16:00 +15°C° 0.1 mm 4 m/s 748 mmHg 73%
17:00 +14°C° 0 mm 3 m/s 748 mmHg 79%
18:00 +13°C° 0 mm 3 m/s 748 mmHg 85%
19:00 +12°C° 0 mm 2 m/s 749 mmHg 91%
20:00 +13°C° 0 mm 2 m/s 749 mmHg 91%
21:00 +13°C° 0 mm 2 m/s 749 mmHg 92%
22:00 +13°C° 0 mm 2 m/s 749 mmHg 92%
23:00 +13°C° 0.3 mm 2 m/s 749 mmHg 94%

30 Septembrie, Miercuri

Timp Temperatura Precipitaţii Vânt Presiune Umiditate
00:00 +13°C° 0.3 mm 2 m/s 748 mmHg 95%
01:00 +13°C° 0.3 mm 3 m/s 748 mmHg 97%
02:00 +12°C° 0.7 mm 3 m/s 748 mmHg 97%
03:00 +12°C° 0.7 mm 3 m/s 748 mmHg 97%
04:00 +12°C° 0.7 mm 3 m/s 748 mmHg 97%
05:00 +12°C° 0.6 mm 3 m/s 748 mmHg 96%
06:00 +12°C° 0.6 mm 3 m/s 748 mmHg 95%
07:00 +12°C° 0.6 mm 3 m/s 748 mmHg 95%
08:00 +13°C° 0.3 mm 3 m/s 748 mmHg 92%
09:00 +13°C° 0.3 mm 4 m/s 748 mmHg 90%
10:00 +13°C° 0.3 mm 4 m/s 748 mmHg 87%
11:00 +13°C° 0.1 mm 4 m/s 748 mmHg 85%
12:00 +14°C° 0.1 mm 4 m/s 748 mmHg 83%
13:00 +14°C° 0.1 mm 4 m/s 747 mmHg 81%
14:00 +14°C° 0 mm 4 m/s 747 mmHg 79%
15:00 +15°C° 0 mm 4 m/s 747 mmHg 76%
16:00 +16°C° 0 mm 3 m/s 747 mmHg 74%
17:00 +14°C° 0 mm 3 m/s 747 mmHg 79%
18:00 +14°C° 0 mm 2 m/s 747 mmHg 85%
19:00 +13°C° 0 mm 2 m/s 747 mmHg 90%
20:00 +13°C° 0 mm 2 m/s 747 mmHg 91%
21:00 +12°C° 0 mm 2 m/s 747 mmHg 93%
22:00 +12°C° 0 mm 2 m/s 747 mmHg 94%
23:00 +12°C° 0 mm 2 m/s 747 mmHg 94%

1 Octombrie, Joi

Timp Temperatura Precipitaţii Vânt Presiune Umiditate
00:00 +12°C° 0 mm 2 m/s 747 mmHg 94%
01:00 +12°C° 0 mm 2 m/s 746 mmHg 94%
02:00 +10°C° 0 mm 2 m/s 746 mmHg 93%
03:00 +10°C° 0 mm 2 m/s 746 mmHg 92%
04:00 +10°C° 0 mm 2 m/s 746 mmHg 92%
05:00 +10°C° 0 mm 2 m/s 745 mmHg 91%
06:00 +10°C° 0 mm 2 m/s 745 mmHg 90%
07:00 +10°C° 0 mm 2 m/s 745 mmHg 89%
08:00 +13°C° 0 mm 2 m/s 745 mmHg 81%
09:00 +15°C° 0 mm 2 m/s 745 mmHg 74%
10:00 +16°C° 0 mm 2 m/s 744 mmHg 66%
11:00 +17°C° 0 mm 2 m/s 744 mmHg 62%
12:00 +18°C° 0 mm 2 m/s 744 mmHg 58%
13:00 +19°C° 0 mm 2 m/s 743 mmHg 54%
14:00 +19°C° 0 mm 2 m/s 743 mmHg 56%
15:00 +19°C° 0 mm 2 m/s 743 mmHg 59%
16:00 +19°C° 0 mm 2 m/s 742 mmHg 61%
17:00 +18°C° 0 mm 2 m/s 742 mmHg 67%
18:00 +16°C° 0 mm 2 m/s 743 mmHg 72%
19:00 +15°C° 0 mm 2 m/s 743 mmHg 78%
20:00 +15°C° 0 mm 2 m/s 743 mmHg 79%
21:00 +14°C° 0 mm 2 m/s 743 mmHg 80%
22:00 +14°C° 0 mm 2 m/s 743 mmHg 81%
23:00 +14°C° 0 mm 2 m/s 743 mmHg 81%
Arată mai mult